軌道要素
Epoch 2014 July 2.0 TT = JDT 2456840.5
T 2014 July 2.51570 TT                                  MPCW
q   0.6639310            (2000.0)            P               Q
z  +0.0014614      Peri.  344.04135     +0.32236742     +0.88590997
                   Node    56.39125     +0.90640511     -0.39047951
e   0.9990298      Incl.  156.39209     +0.27296341     +0.25037828
From 4583 observations 2014 Mar. 13-2015 June 8, mean residual 0".5.
     Nongravitational parameters A1 = +2.09, A2 = -0.2798.
  |